Aircraft CS-LTI Data
= 1024"
:style="isLargeScreen ? 'max-height: calc(100vh - 6rem); overflow-y: auto;' : ''">
1
aircraft record found
CS-LTI
2018 Cessna 680A Citation Latitude, c/n 680A-0132
Latest photos of CS-LTI
Recent Routes
NO LIVE DATA
| Time | Callsign | FL | Speed | Heading | Route |
|---|---|---|---|---|---|
| 2026-09-03 16:02 UTC | NJE074M | — | 0 kt | 276° | — |
| 2026-09-03 15:06 UTC | NJE455F | — | 0 kt | 124° | — |
| 2026-09-03 11:00 UTC | NJE490N | — | 6 kt | 250° | — |
| 2026-09-03 08:30 UTC | NJE620K | FL86 | 259 kt | 247° | — |
| 2026-09-02 15:44 UTC | NJE6XK | — | 23 kt | 315° | — |
| 2026-09-02 14:20 UTC | NJE381U | — | 2 kt | 228° | — |
| 2026-09-02 10:52 UTC | NJE792Q | — | 3 kt | 332° | — |
| 2026-09-01 14:02 UTC | NJE080V | FL13 | 116 kt | 157° | — |
| 2026-09-01 11:06 UTC | NJE872N | FL5 | 101 kt | 255° | — |
| 2026-09-01 07:50 UTC | NJE061C | FL1 | 98 kt | 313° | — |
| 2026-08-31 17:36 UTC | NJE201G | FL0 | 97 kt | 231° | — |
| 2026-08-31 15:16 UTC | NJE265U | — | 4 kt | 104° | — |
| 2026-08-31 11:46 UTC | NJE436V | — | 9 kt | 248° | — |
| 2026-08-31 08:46 UTC | NJE310G | FL5 | 120 kt | 154° | — |
| 2026-08-30 13:56 UTC | NJE970H | — | 3 kt | 197° | — |
| 2026-08-30 10:18 UTC | NJE232H | FL10 | 129 kt | 286° | — |
| 2026-08-30 08:24 UTC | NJE150W | FL2 | 105 kt | 240° | — |
| 2026-08-28 17:26 UTC | NJE631K | FL3 | 102 kt | 264° | — |
| 2026-08-28 13:50 UTC | NJE686H | FL37 | 228 kt | 95° | — |
| 2026-08-27 09:40 UTC | NJE172B | FL3 | 105 kt | 343° | — |
| 2026-08-26 16:52 UTC | NJE570K | — | 21 kt | 225° | — |
| 2026-08-26 13:06 UTC | NJE588A | — | 7 kt | 155° | — |
| 2026-08-25 18:26 UTC | NJE681M | — | 9 kt | 25° | — |
| 2026-08-25 17:20 UTC | NJE217N | — | 7 kt | 273° | — |
| 2026-08-24 21:08 UTC | NJE625W | — | 0 kt | 346° | — |
| 2026-08-24 17:10 UTC | NJE494L | FL0 | 110 kt | 42° | — |
| 2026-08-24 14:12 UTC | NJE595V | — | 1 kt | 135° | — |
| 2026-08-24 10:24 UTC | NJE831P | — | 0 kt | 11° | — |
| 2026-08-23 15:32 UTC | NJE396B | — | 10 kt | 217° | — |
| 2026-08-23 12:10 UTC | NJE942E | — | 5 kt | 169° | — |
| 2026-08-22 13:04 UTC | NJE488D | — | 20 kt | 115° | — |
| 2026-08-21 14:36 UTC | NJE991P | FL4 | 96 kt | 222° | — |
| 2026-08-21 11:24 UTC | NJE720G | — | 5 kt | 242° | — |
| 2026-08-21 09:06 UTC | NJE878H | FL17 | 99 kt | 228° | — |
| 2026-08-21 05:48 UTC | NJE127W | FL271 | 428 kt | 163° | — |
| 2026-08-20 13:40 UTC | NJE258Q | — | 6 kt | 23° | — |
| 2026-08-20 08:24 UTC | NJE648E | — | 78 kt | 290° | — |
| 2026-08-20 06:40 UTC | NJE783H | — | 0 kt | 172° | — |
| 2026-08-19 14:10 UTC | NJE900U | — | 7 kt | 248° | — |
| 2026-08-19 08:52 UTC | NJE059R | FL16 | 97 kt | 265° | — |
| 2026-08-18 15:18 UTC | NJE031R | — | 0 kt | 278° | — |
| 2026-08-17 16:54 UTC | NJE480F | FL5 | 102 kt | 185° | — |
| 2026-08-17 15:14 UTC | NJE826T | — | 0 kt | 340° | — |
| 2026-08-16 11:18 UTC | NJE705A | FL4 | 110 kt | 251° | — |
| 2026-08-16 08:20 UTC | NJE017E | — | 4 kt | 8° | — |
| 2026-08-16 05:54 UTC | NJE720T | FL22 | 188 kt | 62° | — |
| 2026-08-15 12:42 UTC | NJE790U | — | 0 kt | 48° | — |
| 2026-08-15 11:08 UTC | NJE622N | FL2 | 113 kt | 240° | — |
| 2026-08-14 18:26 UTC | NJE612M | — | 3 kt | 169° | — |
| 2026-08-14 11:12 UTC | NJE658D | — | 4 kt | 222° | — |
| 2026-08-14 07:44 UTC | NJE198C | FL9 | 123 kt | 169° | — |
| 2026-08-14 05:38 UTC | NJE104G | — | 0 kt | 104° | — |
| 2026-08-07 13:04 UTC | NJE580T | — | 0 kt | 267° | — |
Live location data from OpenSky Network
Airframe Info
| Manufacturer | Cessna |
| Model | 680A Citation Latitude Search all Cessna 680A Citation Latitude |
| Year built | 2018 |
| Construction Number (C/N) | 680A-0132 |
| Aircraft Type | Fixed wing multi engine |
| Number of Seats | 11 |
| Number of Engines | 2 |
| Engine Type | Turbofan |
| Engine Manufacturer and Model | Pratt & Whitney Canada PW306D1 |
Aircraft
| Registration Number | CS-LTI |
| Mode S (ICAO24) Code | 493289 |
| Current Status | Registered |
| Delivery Date | 2018-05-00 |
Owner
| Owner | Netjets Transportes Aereos |
| Address |
, Portugal |